Flag for U.S.A. Weather past 2 weeks in Anchorage, Alaska, U.S.A.

Now
51 °F

Passing clouds.


Feels Like: 51 °F
Forecast: 49 / 56 °F
Wind: No wind

Location: Lake Hood Seaplane

Current Time: May 23, 2015 at 1:16:26 AM

Latest Report: May 23, 2015 at 12:53 AM


Visibility: 10 mi

Pressure: 30.07 "Hg

Humidity: 74%

Dew point: 43 °F

Location of AnchorageLocation

Historic Weather in Anchorage — Graph

°F

Anchorage temperature yesterday

Maximum temperature yesterday: 65 °F (at 3:53 PM)
Minimum temperature yesterday: 45 °F (at 5:53 AM)
Average temperature yesterday: 54 °F

Past Weeks' High & Low Weather Summary

 TemperatureHumidityPressure
High65 °F (May 22, 3:53 PM)93% (May 8, 4:53 AM)30.25 "Hg (May 8, 4:53 AM)
Low41 °F (May 17, 4:53 AM)34% (May 12, 3:53 PM)29.70 "Hg (May 8, 9:53 AM)
Average51 °F62%30.02 "Hg
* Reported May 7 11:53 PM — May 22 11:53 PM, Anchorage, Weather by CustomWeather, © 2015

Note: Actual official high and low records may vary slightly from our data, if they occured in-between our weather recording intervals... More about our weather records

Advertising

Anchorage weather history for previous 24 hours

 ConditionsComfort  
Time TempWeatherWind HumidityBarometerVisibility
11:53 PM
Fri, May 22
50 °FOvercast.No wind80%30.06 "Hg10 mi
10:53 PM50 °FSunny.6 mph80%30.05 "Hg10 mi
9:53 PM53 °FSunny.5 mph69%30.04 "Hg10 mi
8:53 PM56 °FSunny.6 mph60%30.04 "Hg10 mi
7:53 PM61 °FScattered clouds.6 mph52%30.03 "Hg10 mi
6:53 PM64 °FPassing clouds.3 mph49%30.04 "Hg10 mi
5:53 PM65 °FOvercast.5 mph49%30.06 "Hg9 mi
4:53 PM64 °FSunny.5 mph47%30.08 "Hg10 mi
3:53 PM65 °FSunny.No wind45%30.09 "Hg10 mi
2:53 PM64 °FSunny.6 mph45%30.11 "Hg10 mi
1:53 PM61 °FSunny.3 mph48%30.12 "Hg10 mi
12:53 PM61 °FSunny.3 mph46%30.14 "Hg8 mi
11:53 AM58 °FSunny.No wind56%30.14 "Hg8 mi
10:53 AM54 °FSunny.No wind67%30.16 "Hg7 mi
9:53 AM53 °FSunny.No wind66%30.17 "Hg9 mi
8:53 AM50 °FSunny.No wind74%30.18 "Hg10 mi
7:53 AM47 °FSunny.3 mph83%30.19 "Hg10 mi
6:53 AM47 °FSunny.No wind83%30.19 "Hg10 mi
5:53 AM45 °FClear.No wind86%30.19 "Hg10 mi
4:53 AM46 °FClear.5 mph83%30.19 "Hg10 mi
3:53 AM46 °FClear.No wind79%30.19 "Hg10 mi
2:53 AM47 °FClear.No wind77%30.19 "Hg10 mi
1:53 AM48 °FClear.3 mph74%30.19 "Hg10 mi
Weather by CustomWeather, © 2015

See weather overviewHow to use our weather pages